KOMPSAT-3A              
1 40536U 15014A   19258.80938884  .00000123  00000-0  10964-4 0  9992
2 40536  97.5551 196.2100 0010129  20.8786  63.1483 15.11995222247066
SL-24 DEB               
1 40537U 15014B   19258.55086792  .00007427  00000-0  13811-3 0  9994
2 40537  97.6564 268.9941 0009041 261.6289  98.3936 15.49176165250735
SL-24 R/B               
1 40541U 15014C   19258.48273695 -.00000032  00000-0  42633-5 0  9993
2 40541  97.3584 218.4271 0619481 304.2663  50.1297 13.75252775224545